When you browse on this site, cookies collect data to enhance your experience and personalize the content and advertising you see.
Visit our Privacy Policy to learn more. By continuing to use the site, you agree to this use of cookies and data.
  • In Romania
  • List of Countries
  • For 7 days
  • Water Temperature
  • Satellite Maps
  • Weather Map
  • Weather Widgets
  • user-avatar
    Login

    Hourly Weather Krasnyy Klyuch

    Today, 23 July, Tuesday

    Time Temperature Precipitation Wind Pressure Humidity
    00:00 +16°C° 0.3 mm 1 mps 746 mmHg 89%
    01:00 +16°C° 0.3 mm 1 mps 746 mmHg 90%
    02:00 +15°C° 0 mm 1 mps 746 mmHg 91%
    03:00 +15°C° 0 mm 1 mps 746 mmHg 92%
    04:00 +14°C° 0 mm 1 mps 746 mmHg 92%
    05:00 +15°C° 0 mm 1 mps 747 mmHg 91%
    06:00 +16°C° 0 mm 1 mps 747 mmHg 90%
    07:00 +17°C° 0 mm 2 mps 747 mmHg 89%
    08:00 +18°C° 0.1 mm 2 mps 747 mmHg 86%
    09:00 +19°C° 0.1 mm 3 mps 747 mmHg 83%
    10:00 +20°C° 0.1 mm 4 mps 747 mmHg 80%
    11:00 +20°C° 0.5 mm 4 mps 747 mmHg 78%
    12:00 +21°C° 0.5 mm 4 mps 747 mmHg 76%
    13:00 +21°C° 0.5 mm 4 mps 747 mmHg 75%
    14:00 +21°C° 0.9 mm 4 mps 747 mmHg 76%
    15:00 +21°C° 0.9 mm 5 mps 748 mmHg 78%
    16:00 +21°C° 0.9 mm 5 mps 748 mmHg 80%
    17:00 +20°C° 0.3 mm 4 mps 748 mmHg 81%
    18:00 +20°C° 0.3 mm 4 mps 748 mmHg 83%
    19:00 +19°C° 0.3 mm 3 mps 748 mmHg 85%
    20:00 +18°C° 0 mm 3 mps 748 mmHg 87%
    21:00 +17°C° 0 mm 3 mps 748 mmHg 89%
    22:00 +16°C° 0 mm 2 mps 749 mmHg 91%
    23:00 +15°C° 0 mm 2 mps 749 mmHg 92%

    Tomorrow, 24 July, Wednesday

    Time Temperature Precipitation Wind Pressure Humidity
    00:00 +15°C° 0 mm 2 mps 749 mmHg 92%
    01:00 +15°C° 0 mm 2 mps 749 mmHg 92%
    02:00 +14°C° 0 mm 2 mps 749 mmHg 93%
    03:00 +14°C° 0 mm 1 mps 749 mmHg 93%
    04:00 +14°C° 0 mm 1 mps 750 mmHg 93%
    05:00 +15°C° 0 mm 1 mps 750 mmHg 92%
    06:00 +16°C° 0 mm 1 mps 750 mmHg 90%
    07:00 +18°C° 0 mm 1 mps 750 mmHg 89%
    08:00 +19°C° 0 mm 1 mps 750 mmHg 85%
    09:00 +20°C° 0 mm 1 mps 750 mmHg 82%
    10:00 +22°C° 0 mm 1 mps 750 mmHg 78%
    11:00 +21°C° 0.1 mm 2 mps 750 mmHg 75%
    12:00 +23°C° 0.1 mm 2 mps 750 mmHg 72%
    13:00 +24°C° 0.1 mm 2 mps 750 mmHg 69%
    14:00 +24°C° 0.6 mm 2 mps 750 mmHg 71%
    15:00 +24°C° 0.6 mm 3 mps 750 mmHg 74%
    16:00 +24°C° 0.6 mm 3 mps 750 mmHg 77%
    17:00 +24°C° 0.6 mm 3 mps 750 mmHg 80%
    18:00 +23°C° 0.6 mm 2 mps 750 mmHg 83%
    19:00 +23°C° 0.6 mm 2 mps 750 mmHg 86%
    20:00 +21°C° 0.1 mm 2 mps 751 mmHg 86%
    21:00 +19°C° 0.1 mm 2 mps 751 mmHg 87%
    22:00 +18°C° 0.1 mm 2 mps 751 mmHg 88%
    23:00 +18°C° 0 mm 2 mps 751 mmHg 89%

    Day after tomorrow, 25 July, Thursday

    Time Temperature Precipitation Wind Pressure Humidity
    00:00 +17°C° 0 mm 2 mps 751 mmHg 90%
    01:00 +17°C° 0 mm 2 mps 751 mmHg 91%
    02:00 +16°C° 0 mm 2 mps 751 mmHg 92%
    03:00 +16°C° 0 mm 2 mps 751 mmHg 93%
    04:00 +15°C° 0 mm 2 mps 752 mmHg 94%
    05:00 +16°C° 0 mm 2 mps 752 mmHg 93%
    06:00 +17°C° 0 mm 2 mps 752 mmHg 92%
    07:00 +18°C° 0 mm 2 mps 752 mmHg 91%
    08:00 +20°C° 0 mm 2 mps 752 mmHg 85%
    09:00 +23°C° 0 mm 2 mps 752 mmHg 79%
    10:00 +24°C° 0 mm 3 mps 752 mmHg 73%
    11:00 +25°C° 0.1 mm 3 mps 752 mmHg 68%
    12:00 +26°C° 0.1 mm 3 mps 752 mmHg 63%
    13:00 +28°C° 0.1 mm 3 mps 752 mmHg 58%
    14:00 +28°C° 0.1 mm 3 mps 752 mmHg 58%
    15:00 +28°C° 0.1 mm 3 mps 752 mmHg 59%
    16:00 +28°C° 0.1 mm 3 mps 752 mmHg 59%
    17:00 +27°C° 0 mm 3 mps 752 mmHg 64%
    18:00 +26°C° 0 mm 3 mps 752 mmHg 68%
    19:00 +25°C° 0 mm 3 mps 752 mmHg 73%
    20:00 +22°C° 0 mm 3 mps 752 mmHg 75%
    21:00 +21°C° 0 mm 3 mps 752 mmHg 77%
    22:00 +20°C° 0 mm 3 mps 752 mmHg 79%
    23:00 +19°C° 0 mm 2 mps 752 mmHg 79%

    26 July, Friday

    Time Temperature Precipitation Wind Pressure Humidity
    00:00 +18°C° 0 mm 2 mps 753 mmHg 80%
    01:00 +17°C° 0 mm 2 mps 753 mmHg 80%
    02:00 +17°C° 0 mm 2 mps 753 mmHg 81%
    03:00 +18°C° 0 mm 1 mps 753 mmHg 82%
    04:00 +16°C° 0 mm 1 mps 752 mmHg 83%
    05:00 +18°C° 0 mm 1 mps 753 mmHg 80%
    06:00 +19°C° 0 mm 1 mps 753 mmHg 78%
    07:00 +20°C° 0 mm 1 mps 753 mmHg 75%
    08:00 +22°C° 0 mm 1 mps 753 mmHg 71%
    09:00 +24°C° 0 mm 1 mps 753 mmHg 66%
    10:00 +25°C° 0 mm 2 mps 753 mmHg 62%
    11:00 +26°C° 0 mm 2 mps 752 mmHg 56%
    12:00 +27°C° 0 mm 2 mps 752 mmHg 51%
    13:00 +28°C° 0 mm 2 mps 752 mmHg 45%
    14:00 +28°C° 0 mm 2 mps 751 mmHg 45%
    15:00 +28°C° 0 mm 2 mps 751 mmHg 45%
    16:00 +28°C° 0 mm 2 mps 751 mmHg 45%
    17:00 +27°C° 0 mm 2 mps 751 mmHg 50%
    18:00 +26°C° 0 mm 2 mps 750 mmHg 56%
    19:00 +24°C° 0 mm 2 mps 750 mmHg 62%
    20:00 +23°C° 0 mm 2 mps 750 mmHg 63%
    21:00 +21°C° 0 mm 1 mps 750 mmHg 65%
    22:00 +20°C° 0 mm 1 mps 750 mmHg 67%
    23:00 +19°C° 0 mm 1 mps 750 mmHg 70%

    27 July, Saturday

    Time Temperature Precipitation Wind Pressure Humidity
    00:00 +18°C° 0 mm 1 mps 749 mmHg 72%
    01:00 +18°C° 0 mm 1 mps 749 mmHg 75%
    02:00 +16°C° 0 mm 1 mps 749 mmHg 78%
    03:00 +16°C° 0 mm 1 mps 749 mmHg 80%
    04:00 +15°C° 0 mm 1 mps 748 mmHg 83%
    05:00 +16°C° 0 mm 1 mps 748 mmHg 80%
    06:00 +18°C° 0 mm 1 mps 748 mmHg 78%
    07:00 +20°C° 0 mm 1 mps 748 mmHg 75%
    08:00 +21°C° 0 mm 1 mps 747 mmHg 70%
    09:00 +23°C° 0 mm 1 mps 747 mmHg 66%
    10:00 +24°C° 0 mm 1 mps 747 mmHg 61%
    11:00 +25°C° 0 mm 1 mps 746 mmHg 58%
    12:00 +26°C° 0 mm 1 mps 746 mmHg 55%
    13:00 +27°C° 0 mm 2 mps 745 mmHg 52%
    14:00 +27°C° 0 mm 1 mps 745 mmHg 51%
    15:00 +27°C° 0 mm 1 mps 744 mmHg 51%
    16:00 +27°C° 0 mm 1 mps 744 mmHg 50%
    17:00 +26°C° 0 mm 1 mps 744 mmHg 56%
    18:00 +25°C° 0 mm 1 mps 743 mmHg 63%
    19:00 +24°C° 0 mm 1 mps 743 mmHg 69%
    20:00 +22°C° 0 mm 1 mps 742 mmHg 73%
    21:00 +21°C° 0 mm 1 mps 742 mmHg 77%
    22:00 +17°C° 0 mm 0 mps 741 mmHg 81%
    23:00 +17°C° 0 mm 0 mps 741 mmHg 82%

    28 July, Sunday

    Time Temperature Precipitation Wind Pressure Humidity
    00:00 +18°C° 0 mm 1 mps 741 mmHg 83%
    01:00 +18°C° 0 mm 1 mps 740 mmHg 84%
    02:00 +18°C° 0 mm 1 mps 740 mmHg 85%
    03:00 +16°C° 0 mm 1 mps 739 mmHg 85%
    04:00 +16°C° 0 mm 1 mps 739 mmHg 85%
    05:00 +17°C° 0 mm 2 mps 738 mmHg 84%
    06:00 +18°C° 0 mm 2 mps 738 mmHg 82%
    07:00 +19°C° 0 mm 2 mps 737 mmHg 80%
    08:00 +20°C° 0 mm 3 mps 737 mmHg 76%
    09:00 +21°C° 0 mm 3 mps 736 mmHg 72%
    10:00 +24°C° 0 mm 3 mps 736 mmHg 68%
    11:00 +25°C° 0.3 mm 4 mps 735 mmHg 66%
    12:00 +25°C° 0.3 mm 4 mps 735 mmHg 64%
    13:00 +26°C° 0.3 mm 4 mps 735 mmHg 62%
    14:00 +25°C° 0.9 mm 4 mps 734 mmHg 66%
    15:00 +25°C° 0.9 mm 4 mps 734 mmHg 69%
    16:00 +24°C° 0.9 mm 3 mps 734 mmHg 73%
    17:00 +21°C° 0.7 mm 4 mps 734 mmHg 79%
    18:00 +20°C° 0.7 mm 4 mps 734 mmHg 85%
    19:00 +18°C° 0.7 mm 4 mps 734 mmHg 91%
    20:00 +17°C° 0.3 mm 4 mps 734 mmHg 92%
    21:00 +15°C° 0.3 mm 4 mps 734 mmHg 93%
    22:00 +13°C° 0.3 mm 4 mps 734 mmHg 95%
    23:00 +13°C° 0.2 mm 4 mps 734 mmHg 94%
    Show more